Find Local Weather

World > North America > United States > Iowa

Glenwood, Iowa Regional Weather

Lat: 41.05N, Lon: 95.74W
Wx Zone: IAZ079
Feedback
Expires:201804200000;;206918
ASUS43 KDMX 192306
RWRIA 

WEATHER ROUNDUP FOR IOWA
NATIONAL WEATHER SERVICE DES MOINES IA
600 PM CDT THU APR 19 2018

NOTE: "FAIR" INDICATES FEW OR NO CLOUDS BELOW 12,000 FEET WITH NO
SIGNIFICANT WEATHER AND/OR OBSTRUCTIONS TO VISIBILITY.

* - THESE STATIONS ARE NOT NWS STATIONS...THUS NOT UNDER NWS
QUALITY CONTROL.  THEY ALSO DO NOT REPORT WEATHER SUCH 
AS PRECIPITATION OR FOG.  


IAZ055>058-069>071-079>083-090>094-200000-
   SOUTHWEST IOWA
  
CITY           SKY/WX    TMP DP  RH WIND       PRES   REMARKS
ATLANTIC *     SUNNY     55  23  28 VRB7      30.40S                  
AUDUBON *      SUNNY     54  25  32 NE8       30.42F                  
CLARINDA *     SUNNY     59  27  29 NE6       30.40F                  
COUNCIL BLFS * SUNNY     55  28  35 CALM      30.38S                  
CRESTON *      SUNNY     55  23  28 VRB6      30.41S                  
HARLAN  *      SUNNY     55  25  30 E10       30.43F                  
LAMONI         SUNNY     55  26  32 E8        30.39F                  
RED OAK *      SUNNY     57  25  28 S5G13     30.39S                  
SHENANDOAH *   SUNNY     59  27  29 E6G14     30.38F                  
$$
 

SKY/WX - Weather  TMP - Temperature  DP - Dewpoint  RH - Relative Humidity
WIND - Wind Direction/Speed PRES - Barometric Pressure